F4FEB-14 Weather Reports


Display with metric or nautical units.
time (UTC)temp
F
wind
direction
speed
MPH
gust
MPH
rain 1hr
in
rain 24hr
in
rain mn
in
humidity
%
barometer
mb
20260505152539 56 159 3.0 12.0 0.00 0.15 0.00 100 1010.8
20260505152037 56 167 5.0 12.0 0.00 0.15 0.00 100 1010.8
20260505151535 55 161 6.0 12.0 0.00 0.15 0.00 100 1010.7
20260505151034 55 167 6.0 10.0 0.00 0.15 0.00 100 1010.8
20260505150532 55 176 4.0 13.0 0.05 0.15 0.00 100 1010.8
20260505140516 65 165 5.0 13.0 0.00 0.11 0.00 100 1009.9
20260505124958 62 286 2.0 9.0 0.01 0.11 0.00 100 1010.3
20260505124456 62 164 3.0 13.0 0.01 0.11 0.00 100 1010.3
20260505123956 62 179 3.0 13.0 0.01 0.11 0.00 100 1010.4
20260505123454 60 207 2.0 11.0 0.01 0.11 0.00 100 1010.3
20260505122954 59 220 2.0 7.0 0.00 0.10 0.00 100 1010.3
20260505122453 59 166 3.0 7.0 0.00 0.10 0.00 100 1010.3
20260505121951 59 161 3.0 7.0 0.00 0.10 0.00 100 1010.4
20260505121450 60 150 3.0 7.0 0.00 0.10 0.00 100 1010.5
20260505120950 59 161 3.0 8.0 0.00 0.10 0.00 100 1010.6
20260505120449 57 168 3.0 9.0 0.04 0.10 0.00 100 1010.6
20260505115948 56 172 4.0 9.0 0.04 0.10 0.00 100 1010.7
20260505115447 55 187 3.0 9.0 0.04 0.10 0.00 100 1010.8
20260505114945 55 173 4.0 9.0 0.04 0.10 0.00 100 1010.9
20260505114444 55 190 4.0 10.0 0.04 0.10 0.00 100 1010.9
20260505113441 55 186 4.0 10.0 0.03 0.09 0.00 100 1010.8
20260505112940 55 178 5.0 10.0 0.03 0.09 0.00 100 1011.0
20260505111938 55 161 3.0 14.0 0.02 0.08 0.00 100 1010.8
20260505111437 55 191 2.0 14.0 0.01 0.07 0.00 100 1010.9
20260505110435 57 252 2.0 4.0 0.02 0.04 0.00 100 1010.9
20260505101421 57 254 2.0 4.0 0.00 0.02 0.00 100 1011.0
20260505100417 56 239 2.0 6.0 0.01 0.02 0.00 100 1011.0
20260505095915 57 247 1.0 7.0 0.00 0.01 0.00 100 1010.9
20260505095415 58 279 3.0 9.0 0.00 0.01 0.00 100 1010.9
20260505094913 58 259 3.0 9.0 0.00 0.01 0.00 100 1010.8
20260505094411 58 262 2.0 4.0 0.00 0.01 0.00 100 1010.8
20260505093909 58 273 2.0 6.0 0.00 0.01 0.00 100 1010.8
20260505093406 58 239 3.0 8.0 0.00 0.01 0.00 100 1010.9
20260505092903 58 238 2.0 8.0 0.00 0.01 0.00 100 1010.7
20260505091857 60 296 2.0 6.0 0.00 0.01 0.00 100 1010.7
20260505091356 60 255 2.0 5.0 0.00 0.01 0.00 100 1010.7
20260505090854 60 264 1.0 6.0 0.00 0.01 0.00 100 1010.6
20260505090352 60 156 1.0 6.0 0.00 0.01 0.00 100 1010.7
20260505085851 60 231 1.0 3.0 0.00 0.01 0.00 100 1010.6
20260505085350 60 257 1.0 3.0 0.00 0.01 0.00 100 1010.6
20260505084849 59 252 1.0 6.0 0.00 0.01 0.00 100 1010.6
20260505084348 59 174 3.0 6.0 0.00 0.01 0.00 100 1010.6
20260505083847 59 161 2.0 5.0 0.00 0.01 0.00 100 1010.6
20260505083344 59 168 2.0 4.0 0.00 0.01 0.00 100 1010.5
20260505082843 59 149 2.0 4.0 0.00 0.01 0.00 100 1010.4
20260505082340 58 124 1.0 4.0 0.00 0.01 0.00 100 1010.5
20260505081837 57 173 2.0 5.0 0.00 0.01 0.00 100 1010.4
20260505081335 57 149 2.0 5.0 0.00 0.01 0.00 100 1010.4
20260505080834 57 161 2.0 4.0 0.00 0.01 0.00 100 1010.4
20260505080333 57 165 2.0 4.0 0.00 0.01 0.00 100 1010.5
20260505075832 57 166 1.0 3.0 0.00 0.01 0.00 100 1010.4
20260505075330 57 160 1.0 4.0 0.00 0.01 0.00 100 1010.4
20260505074828 56 183 1.0 4.0 0.00 0.01 0.00 100 1010.6
20260505074326 56 172 1.0 3.0 0.00 0.01 0.00 100 1010.6
20260505073826 55 226 1.0 3.0 0.00 0.01 0.00 100 1010.7
20260505073323 55 166 1.0 3.0 0.00 0.01 0.00 100 1010.6
20260505072821 54 173 2.0 3.0 0.00 0.01 0.00 100 1010.7
20260505072317 54 162 1.0 4.0 0.00 0.01 0.00 100 1010.7
20260505071816 54 169 2.0 4.0 0.00 0.01 0.00 100 1010.8
20260505071314 54 167 0.0 2.0 0.00 0.01 0.00 100 1010.8
20260505070814 54 126 0.0 3.0 0.00 0.01 0.00 100 1010.8
20260505070313 54 155 1.0 3.0 0.00 0.01 0.00 100 1010.9
20260505065310 53 303 0.0 1.0 0.00 0.01 0.00 100 1010.9
20260505064809 53 308 0.0 1.0 0.00 0.01 0.00 100 1010.9
20260505064307 52 354 0.0 1.0 0.00 0.01 0.00 100 1010.9
20260505063806 52 285 0.0 1.0 0.00 0.01 0.00 100 1011.0
20260505063305 52 315 0.0 0.0 0.00 0.01 0.00 100 1011.0
20260505062803 52 311 0.0 0.0 0.00 0.01 0.00 100 1011.0
20260505062301 51 266 0.0 0.0 0.00 0.01 0.00 100 1011.1
20260505061800 51 281 0.0 0.0 0.00 0.01 0.00 100 1011.2
20260505061258 51 308 0.0 1.0 0.00 0.01 0.00 100 1011.2
20260505060256 51 176 0.0 1.0 0.01 0.01 0.00 100 1011.3
20260505055754 51 271 0.0 2.0 0.01 0.01 0.00 100 1011.4
20260505055254 50 185 0.0 2.0 0.01 0.01 0.00 100 1011.4
20260505054752 50 185 0.0 0.0 0.01 0.01 0.00 100 1011.4
20260505054251 50 254 0.0 0.0 0.01 0.01 0.00 100 1011.4
20260505053751 50 318 0.0 0.0 0.01 0.01 0.00 100 1011.5
20260505053250 50 273 0.0 0.0 0.00 0.00 0.00 100 1011.4
20260505052749 50 311 0.0 1.0 0.00 0.00 0.00 100 1011.5
20260505051745 50 9 0.0 2.0 0.00 0.00 0.00 100 1011.6
20260505051244 50 171 1.0 3.0 0.00 0.00 0.00 100 1011.7
20260505050743 50 231 0.0 3.0 0.00 0.00 0.00 100 1011.7
20260505050241 50 87 0.0 2.0 0.02 0.18 0.00 100 1011.8
20260505041727 50 329 0.0 1.0 0.01 0.17 0.00 100 1012.0
20260505041226 50 316 0.0 1.0 0.00 0.16 0.00 100 1012.1
20260505040725 50 265 0.0 1.0 0.00 0.16 0.00 100 1012.1
20260505035722 50 161 1.0 2.0 0.03 0.15 0.00 100 1012.4
20260505035221 50 239 0.0 2.0 0.03 0.15 0.00 100 1012.3
20260505034720 50 165 1.0 3.0 0.03 0.15 0.00 100 1012.3
20260505034220 49 172 1.0 4.0 0.02 0.14 0.00 100 1012.4
20260505033719 49 174 2.0 4.0 0.02 0.14 0.00 100 1012.4
20260505033218 49 169 2.0 4.0 0.02 0.14 0.00 100 1012.4
20260505032717 49 169 1.0 3.0 0.02 0.14 0.00 100 1012.4
20260505032216 49 173 2.0 3.0 0.01 0.14 0.00 100 1012.4
20260505031715 49 165 1.0 3.0 0.01 0.14 0.00 100 1012.5
20260505031213 49 171 2.0 3.0 0.01 0.14 0.00 100 1012.6
20260505030709 49 168 1.0 2.0 0.00 0.13 0.00 100 1012.5
20260505030209 49 166 1.0 3.0 0.03 0.13 0.00 100 1012.6
20260505025702 49 171 1.0 3.0 0.03 0.13 0.00 100 1012.6
20260505025158 49 179 1.0 2.0 0.02 0.12 0.00 100 1012.7
20260505024653 50 170 1.0 2.0 0.02 0.12 0.00 100 1012.8
20260505024145 50 173 1.0 3.0 0.02 0.12 0.00 100 1012.7
20260505023642 50 168 1.0 3.0 0.02 0.12 0.00 100 1012.8
20260505023141 50 176 1.0 3.0 0.01 0.11 0.00 100 1012.8
20260505022637 49 193 1.0 3.0 0.01 0.11 0.00 100 1012.9
20260505022136 49 173 1.0 2.0 0.01 0.11 0.00 100 1012.8
20260505021635 49 170 1.0 2.0 0.01 0.11 0.00 100 1012.8
20260505021134 49 168 1.0 2.0 0.00 0.10 0.00 100 1012.9
20260505020132 49 160 0.0 2.0 0.03 0.09 0.00 100 1012.9
20260505015631 49 187 0.0 3.0 0.03 0.09 0.00 100 1012.9
20260505015129 49 158 1.0 3.0 0.02 0.08 0.00 100 1012.9
20260505014628 49 168 1.0 4.0 0.02 0.08 0.00 100 1013.0
20260505013625 49 172 3.0 5.0 0.01 0.07 0.00 100 1013.1
20260505013124 48 172 0.0 1.0 0.01 0.07 0.00 100 1013.0
20260505012119 48 352 0.0 1.0 0.00 0.06 0.00 100 1013.1
20260505011115 49 300 0.0 3.0 0.00 0.06 0.00 100 1013.0
20260505010614 50 18 1.0 3.0 0.00 0.06 0.00 100 1013.1
20260505010113 49 332 0.0 1.0 0.00 0.06 0.00 100 1013.1
20260505005612 49 315 0.0 3.0 0.00 0.06 0.00 100 1013.3
20260505005111 49 170 0.0 4.0 0.00 0.06 0.00 100 1013.4
20260505004610 49 220 1.0 4.0 0.00 0.06 0.00 100 1013.4
20260505003606 48 207 1.0 3.0 0.00 0.06 0.00 100 1013.5
20260505003106 48 259 0.0 3.0 0.00 0.06 0.00 100 1013.5
20260505002104 48 195 1.0 3.0 0.00 0.06 0.00 100 1013.6
20260505001603 48 229 1.0 3.0 0.00 0.06 0.00 100 1013.7
20260505001102 48 236 1.0 3.0 0.00 0.06 0.00 100 1013.7
20260505000600 48 178 2.0 4.0 0.00 0.06 0.00 100 1013.7
20260505000059 48 174 2.0 4.0 0.00 0.06 0.00 100 1013.7
20260504235558 47 175 1.0 3.0 0.00 0.06 0.00 100 1013.5
20260504234556 47 189 1.0 3.0 0.00 0.06 0.00 100 1013.5
20260504234055 47 172 1.0 2.0 0.00 0.06 0.00 100 1013.5
20260504233554 47 286 0.0 3.0 0.00 0.06 0.00 100 1013.3
20260504233053 47 300 0.0 3.0 0.00 0.06 0.00 100 1013.4
20260504232552 47 192 0.0 2.0 0.00 0.06 0.00 100 1013.5
20260504231549 46 302 0.0 1.0 0.00 0.06 0.00 100 1013.6
20260504231049 46 278 0.0 3.0 0.00 0.06 0.00 100 1013.5
20260504230547 46 185 1.0 3.0 0.00 0.06 0.00 100 1013.7
20260504230046 46 165 1.0 3.0 0.00 0.06 0.00 100 1013.6
20260504225544 46 213 0.0 3.0 0.00 0.06 0.00 100 1013.6
20260504225043 46 254 0.0 0.0 0.00 0.06 0.00 100 1013.6
20260504224542 46 268 0.0 0.0 0.00 0.06 0.00 100 1013.6
20260504224041 46 259 0.0 2.0 0.00 0.06 0.00 100 1013.8
20260504223540 46 253 0.0 2.0 0.00 0.06 0.00 100 1013.6
20260504223039 46 246 1.0 2.0 0.00 0.06 0.00 100 1013.7
20260504222538 46 268 0.0 3.0 0.00 0.06 0.00 100 1013.8
20260504222036 46 177 1.0 3.0 0.00 0.06 0.00 100 1013.9
20260504221535 46 171 2.0 3.0 0.00 0.06 0.00 100 1013.9
20260504221034 46 261 0.0 2.0 0.00 0.06 0.00 100 1013.8
20260504220532 47 230 0.0 3.0 0.00 0.06 0.00 100 1013.7
20260504220031 46 177 1.0 3.0 0.00 0.06 0.00 100 1013.8
20260504215530 46 254 0.0 2.0 0.00 0.06 0.00 100 1013.7
20260504215028 46 170 1.0 2.0 0.00 0.06 0.00 100 1013.8
20260504214527 46 203 0.0 2.0 0.00 0.06 0.00 100 1013.9
20260504214026 47 263 1.0 1.0 0.00 0.06 0.00 100 1014.0
20260504213525 47 225 0.0 2.0 0.00 0.06 0.00 100 1014.1
20260504212522 47 278 0.0 2.0 0.00 0.06 0.00 100 1014.0
20260504212021 48 179 1.0 2.0 0.00 0.06 0.00 100 1014.0
20260504211521 48 267 0.0 2.0 0.00 0.06 0.00 100 1014.0
20260504211019 48 175 1.0 2.0 0.00 0.06 0.00 100 1014.0
20260504210518 48 194 1.0 2.0 0.00 0.06 0.00 100 1014.1
20260504210017 49 200 0.0 2.0 0.00 0.06 0.00 100 1014.1
20260504205515 49 177 1.0 2.0 0.00 0.06 0.00 100 1014.2
20260504204513 49 225 0.0 1.0 0.00 0.06 0.00 100 1014.2
20260504204011 49 189 0.0 1.0 0.00 0.06 0.00 100 1014.3
20260504203009 50 252 0.0 0.0 0.00 0.06 0.00 100 1014.4
20260504202508 50 270 0.0 0.0 0.00 0.06 0.00 100 1014.3
20260504202006 50 181 0.0 0.0 0.00 0.06 0.00 100 1014.4
20260504201003 51 300 0.0 0.0 0.00 0.06 0.00 100 1014.4
20260504200503 51 356 0.0 0.0 0.00 0.06 0.00 100 1014.3
20260504200001 51 315 0.0 0.0 0.00 0.06 0.00 100 1014.2
20260504195500 51 270 0.0 0.0 0.00 0.06 0.00 100 1014.2
20260504194959 52 270 0.0 0.0 0.00 0.06 0.00 100 1014.2
20260504194457 52 270 0.0 0.0 0.00 0.06 0.00 100 1014.2
20260504193956 52 137 0.0 1.0 0.00 0.06 0.00 100 1014.2
20260504193455 52 181 0.0 1.0 0.00 0.06 0.00 100 1014.3
20260504192953 53 258 0.0 1.0 0.00 0.06 0.00 100 1014.2
20260504191951 53 25 0.0 1.0 0.00 0.06 0.00 100 1014.1
20260504191450 53 358 0.0 1.0 0.00 0.06 0.00 100 1014.1
20260504190949 53 27 0.0 1.0 0.00 0.06 0.00 100 1014.2
20260504190448 53 343 0.0 0.0 0.00 0.06 0.00 100 1014.1
20260504185446 54 47 0.0 3.0 0.00 0.06 0.00 100 1014.1
20260504184945 54 121 0.0 3.0 0.00 0.06 0.00 100 1014.1
20260504184444 54 15 0.0 1.0 0.00 0.06 0.00 100 1014.0
20260504183441 54 279 0.0 1.0 0.00 0.06 0.00 100 1014.0
20260504182940 54 280 0.0 0.0 0.00 0.06 0.00 100 1014.0
20260504182439 55 234 0.0 1.0 0.00 0.06 0.00 100 1014.0
20260504181937 55 250 0.0 1.0 0.00 0.06 0.00 100 1014.0
20260504181436 55 276 0.0 1.0 0.00 0.06 0.00 100 1014.0
20260504180935 55 0 0.0 1.0 0.00 0.06 0.00 100 1014.1
20260504180433 56 259 0.0 4.0 0.00 0.06 0.00 100 1014.1
20260504175932 56 234 2.0 6.0 0.00 0.06 0.00 100 1014.0
20260504175430 56 58 0.0 2.0 0.00 0.06 0.00 100 1014.1
20260504174930 56 334 0.0 0.0 0.00 0.06 0.00 100 1014.1
20260504174427 57 287 0.0 1.0 0.00 0.06 0.00 100 1014.2
20260504173926 57 300 0.0 2.0 0.00 0.06 0.00 100 1014.1
20260504173425 58 298 1.0 2.0 0.00 0.06 0.00 100 1014.0
20260504172923 58 287 0.0 1.0 0.00 0.06 0.00 100 1014.1
20260504172422 59 268 0.0 4.0 0.00 0.06 0.00 100 1014.1
20260504171921 59 289 0.0 2.0 0.00 0.06 0.00 100 1014.1
20260504171419 60 335 0.0 2.0 0.00 0.06 0.00 100 1014.1
20260504170918 60 177 1.0 2.0 0.00 0.06 0.00 100 1014.2
20260504170417 60 270 1.0 2.0 0.00 0.06 0.00 100 1014.3
20260504160406 57 269 1.0 6.0 0.00 0.06 0.00 100 1014.5